Voltar ao catálogo

CZ-4 DEB

AtivoSSO
NORAD 26306·DEBRIS·🇨🇳 China

Lançado Oct 14, 1999 de Taiyuan Satellite Launch Center

Loading…

Próximas Passagens (próximas 24 horas)

TLE

AtualizadoSource: Space-Track

Época: Sep 14, 2026, 09:17 UTC

1 26306U 99057GP  26257.38699253  .00000148  00000-0  61681-4 0  9993
2 26306  98.7357 307.0963 0094670 301.0942  69.0824 14.38237875386094

Acompanhe CZ-4 DEB em tempo real com AllMySat

Download on the App Store